DW0333 Tranby-Lier NO current weather conditions

sailwx.info

Wind from 198 at 1 knots

Air temperature 13.9° C
Dewpoint 9.5° C

Last reported at 2014-Sep-01 10:48 UTC.
Time now 2014-Sep-01 11:13 UTC

Location: N 59°50' E 010°17'.
View on Google Maps.

See reports from other nearby stations

  
Tides and Currents Weather Stations Pressure Air Temp Water Temp Dewpoint Dewpoint Depression Visibility Wind Speed Wind Dir Waves Ship Positions
date/time (UTC)wind fromknots sea level pressurealtimeterstation pressurevisibilityair tempwater tempwave heightnotes
2014-Sep-01 10:48 198 1 13.9
2014-Sep-01 10:34 194 0 13.3
2014-Sep-01 10:18 181 1 12.8
2014-Sep-01 10:03 154 0 12.8
2014-Sep-01 09:48 242 0 12.2
2014-Sep-01 09:32 252 0 12.2
2014-Sep-01 09:17 245 1 12.8
2014-Sep-01 09:02 244 1 12.8
2014-Sep-01 08:47 142 0 12.8
2014-Sep-01 08:32 142 1 12.8
2014-Sep-01 08:17 101 1 12.2
2014-Sep-01 08:01 088 1 11.7
2014-Sep-01 07:46 104 1 11.1
2014-Sep-01 07:31 108 0 10.6
2014-Sep-01 07:16 041 0 10.6
2014-Sep-01 07:02 039 0 10.0
2014-Sep-01 06:46 039 0 9.4
2014-Sep-01 06:29 038 0 8.9
2014-Sep-01 06:15 038 0 8.3
2014-Sep-01 05:59 038 0 8.3
2014-Sep-01 05:44 038 0 7.8
2014-Sep-01 05:28 038 7.2
2014-Sep-01 05:13 038 0 6.7
2014-Sep-01 04:58 038 6.7
2014-Sep-01 04:43 038 6.7
2014-Sep-01 04:27 038 0 7.2
2014-Sep-01 04:12 038 0 7.2
2014-Sep-01 03:57 038 0 7.2
2014-Sep-01 03:42 037 0 7.2
2014-Sep-01 03:27 037 0 7.2
2014-Sep-01 03:12 038 0 7.2
2014-Sep-01 02:57 039 0 7.2
2014-Sep-01 02:41 039 7.2
2014-Sep-01 02:27 039 0 7.8
2014-Sep-01 02:12 039 0 7.8
2014-Sep-01 01:56 039 0 7.8
2014-Sep-01 01:41 039 0 7.8
2014-Sep-01 01:26 046 0 7.8
2014-Sep-01 01:09 046 0 7.8
2014-Sep-01 00:54 046 0 7.8
2014-Sep-01 00:39 052 0 7.8
2014-Sep-01 00:24 052 0 7.8
2014-Sep-01 00:08 052 0 8.3
2014-Aug-31 23:53 052 0 8.3
2014-Aug-31 23:38 052 0 8.3
2014-Aug-31 23:23 052 0 8.9
2014-Aug-31 23:08 052 0 8.9
2014-Aug-31 22:52 053 1 8.3
2014-Aug-31 22:38 044 0 8.3
2014-Aug-31 22:22 043 0 8.3
2014-Aug-31 22:07 044 0 8.3
2014-Aug-31 21:52 044 0 8.3
2014-Aug-31 21:37 044 0 8.3
2014-Aug-31 21:22 044 0 8.3
2014-Aug-31 21:06 044 0 8.3
2014-Aug-31 20:51 043 0 8.9
2014-Aug-31 20:36 043 0 9.4
2014-Aug-31 20:21 044 0 10.0
2014-Aug-31 20:04 048 0 10.0
2014-Aug-31 19:49 061 0 10.6
2014-Aug-31 19:34 066 1 10.6
2014-Aug-31 19:19 079 0 10.6
2014-Aug-31 19:04 067 0 10.6
2014-Aug-31 18:49 067 0 10.6
2014-Aug-31 18:33 067 0 11.1
2014-Aug-31 18:18 067 11.7
2014-Aug-31 18:03 067 11.7
2014-Aug-31 17:48 067 0 12.2
2014-Aug-31 17:32 052 0 12.2
2014-Aug-31 17:17 004 12.2
2014-Aug-31 17:02 004 12.8
2014-Aug-31 16:47 004 12.8
2014-Aug-31 16:32 334 0 12.8
2014-Aug-31 16:17 086 0 12.8
2014-Aug-31 16:02 335 0 12.8
2014-Aug-31 15:46 319 0 12.8
2014-Aug-31 15:31 325 0 12.8
2014-Aug-31 15:16 017 0 13.3
2014-Aug-31 15:01 314 0 13.9
2014-Aug-31 14:46 325 0 14.4
2014-Aug-31 14:30 073 0 15.0
2014-Aug-31 14:15 012 0 15.0
2014-Aug-31 14:00 063 0 15.0
2014-Aug-31 13:44 015 0 15.0
2014-Aug-31 13:29 040 0 15.6
2014-Aug-31 13:13 040 3 15.0
2014-Aug-31 12:58 055 1 14.4
2014-Aug-31 12:43 050 1 13.9
2014-Aug-31 12:29 013 1 14.4
2014-Aug-31 12:13 042 1 13.3
2014-Aug-31 11:58 079 1 13.9
2014-Aug-31 11:43 048 1 13.3
2014-Aug-31 11:27 061 0 12.8
2014-Aug-31 11:12 007 0 12.2
2014-Aug-31 10:57 079 0 11.7
2014-Aug-31 10:41 354 0 11.7
2014-Aug-31 10:26 039 1 11.1
2014-Aug-31 10:11 088 1 11.1
2014-Aug-31 09:57 325 1 10.6
2014-Aug-31 09:41 346 1 10.6
2014-Aug-31 09:25 046 1 10.0
2014-Aug-31 09:09 029 1 10.0
2014-Aug-31 08:54 023 0 10.0
2014-Aug-31 08:39 052 1 10.0
2014-Aug-31 08:24 046 1 9.4
2014-Aug-31 08:09 358 1 9.4
2014-Aug-31 07:53 040 1 9.4
2014-Aug-31 07:38 350 1 9.4
2014-Aug-31 07:23 328 0 9.4
2014-Aug-31 07:08 044 1 9.4
2014-Aug-31 06:52 067 1 9.4
2014-Aug-31 06:37 055 2 9.4
2014-Aug-31 06:22 061 2 9.4
2014-Aug-31 06:07 080 2 9.4
2014-Aug-31 05:53 027 3 9.4
2014-Aug-31 05:37 065 2 9.4
2014-Aug-31 05:22 015 3 9.4
2014-Aug-31 05:06 108 2 9.4
2014-Aug-31 04:51 073 2 9.4
2014-Aug-31 04:36 340 3 9.4
2014-Aug-31 04:21 360 2 9.4
2014-Aug-31 04:07 358 3 9.4
2014-Aug-31 03:52 109 3 9.4
2014-Aug-31 03:34 019 4 9.4
2014-Aug-31 03:19 140 4 9.4
2014-Aug-31 03:04 346 3 9.4
2014-Aug-31 02:49 048 4 9.4
2014-Aug-31 02:33 129 3 9.4
2014-Aug-31 02:18 052 3 9.4
2014-Aug-31 02:03 125 4 9.4
2014-Aug-31 01:48 042 4 9.4
2014-Aug-31 01:33 158 3 9.4
2014-Aug-31 01:17 105 4 9.4
2014-Aug-31 01:02 098 3 10.0
2014-Aug-31 00:47 060 3 10.0
2014-Aug-31 00:32 050 3 10.0
2014-Aug-31 00:17 101 3 10.0
2014-Aug-31 00:02 094 3 10.0
2014-Aug-30 23:46 104 3 10.0
2014-Aug-30 23:31 031 2 10.0
2014-Aug-30 23:16 148 3 10.0
2014-Aug-30 23:01 055 3 10.0
2014-Aug-30 22:46 046 2 10.0
2014-Aug-30 22:31 033 2 10.0
2014-Aug-30 22:14 012 3 10.0
2014-Aug-30 22:00 062 3 10.0
2014-Aug-30 21:44 066 3 10.0
2014-Aug-30 21:29 092 2 10.0
2014-Aug-30 21:13 046 3 10.0
2014-Aug-30 20:58 047 2 10.0
2014-Aug-30 20:43 117 2 10.0
2014-Aug-30 20:28 005 2 10.0
2014-Aug-30 20:13 082 2 10.0
2014-Aug-30 19:58 086 3 10.0
2014-Aug-30 19:42 081 3 10.0
2014-Aug-30 19:28 013 2 10.0
2014-Aug-30 19:13 026 2 10.0
2014-Aug-30 18:57 036 3 10.0
2014-Aug-30 18:42 050 3 10.0
2014-Aug-30 18:27 133 2 10.0
2014-Aug-30 18:11 038 1 10.6
2014-Aug-30 17:56 044 2 10.6
2014-Aug-30 17:41 035 2 10.6
2014-Aug-30 17:27 133 2 10.6
2014-Aug-30 17:11 124 2 10.6
2014-Aug-30 16:54 044 2 10.6
2014-Aug-30 16:39 207 2 10.6
2014-Aug-30 16:24 282 3 10.6
2014-Aug-30 16:09 123 2 10.6
2014-Aug-30 15:54 067 2 10.6
2014-Aug-30 15:39 019 1 11.1
2014-Aug-30 15:23 088 0 11.1
2014-Aug-30 15:08 059 1 10.6
2014-Aug-30 14:53 274 2 10.6
2014-Aug-30 14:37 118 1 11.1
2014-Aug-30 14:22 058 2 11.1
2014-Aug-30 14:07 056 2 11.1
2014-Aug-30 13:52 120 2 11.7
2014-Aug-30 13:37 015 3 11.7
2014-Aug-30 13:22 040 1 11.7
2014-Aug-30 13:07 104 2 11.7
2014-Aug-30 12:52 031 2 11.7
2014-Aug-30 12:36 052 2 11.7
2014-Aug-30 12:21 148 3 11.7
2014-Aug-30 12:06 098 3 11.1
2014-Aug-30 11:51 066 3 11.1
2014-Aug-30 11:37 126 3 11.1
2014-Aug-30 11:21 099 2 11.1
2014-Aug-30 11:04 063 1 10.6